PGT8PZ LRCL-LTFJ

Flight info

Callsign PGT8PZ
Flight time 1h 14m
Altitude 37000
Route IRLOX DCT BULEN L605 RIXEN DCT GINLI
Aircraft A320/M-SDE3FGHIRWY/LB1

Departure

Time 2026-04-26 16:12
Airport Avram Iancu Cluj International Airport (LRCL)

Arrival

Time 2026-04-26 17:27
Airport Istanbul Sabiha Gökçen International Airport (LTFJ)
Time Latitude Longitude Altitude Speed Heading
2026-04-26 15:41 46.78541 23.69253 1043 ft 0 kts 251°
2026-04-26 16:04 46.78544 23.69268 1043 ft 4 kts 255°
2026-04-26 16:04 46.78549 23.69307 1043 ft 4 kts 276°
2026-04-26 16:05 46.78540 23.69339 1043 ft 4 kts 329°
2026-04-26 16:05 46.78534 23.69344 1043 ft 0 kts 342°
2026-04-26 16:07 46.78537 23.69342 1043 ft 1 kts 342°
2026-04-26 16:07 46.78553 23.69335 1043 ft 3 kts 342°
2026-04-26 16:07 46.78580 23.69322 1043 ft 5 kts 342°
2026-04-26 16:07 46.78620 23.69303 1043 ft 8 kts 342°
2026-04-26 16:08 46.78677 23.69276 1043 ft 9 kts 342°
2026-04-26 16:08 46.78742 23.69244 1043 ft 10 kts 342°
2026-04-26 16:08 46.78789 23.69222 1043 ft 0 kts 342°
2026-04-26 16:09 46.78798 23.69218 1043 ft 5 kts 342°
2026-04-26 16:10 46.78840 23.69197 1043 ft 7 kts 341°
2026-04-26 16:10 46.78900 23.69187 1043 ft 10 kts 13°
2026-04-26 16:10 46.78937 23.69259 1043 ft 10 kts 69°
2026-04-26 16:10 46.78974 23.69418 1043 ft 19 kts 72°
2026-04-26 16:11 46.78994 23.69572 1043 ft 12 kts 84°
2026-04-26 16:11 46.79014 23.69602 1043 ft 1 kts 294°
2026-04-26 16:11 46.79009 23.69578 1043 ft 4 kts 255°
2026-04-26 16:11 46.78970 23.69399 1043 ft 49 kts 252°
2026-04-26 16:12 46.78786 23.68589 1043 ft 115 kts 252°
2026-04-26 16:12 46.78485 23.67297 1367 ft 136 kts 259°
2026-04-26 16:12 46.77883 23.64685 2881 ft 135 kts 263°
2026-04-26 16:13 46.77585 23.63328 3260 ft 150 kts 259°
2026-04-26 16:13 46.77181 23.61788 3497 ft 180 kts 243°
2026-04-26 16:13 46.76056 23.60669 3751 ft 219 kts 194°
2026-04-26 16:13 46.74464 23.60892 3990 ft 248 kts 161°
2026-04-26 16:14 46.72851 23.61986 4352 ft 272 kts 150°
2026-04-26 16:14 46.71139 23.63476 4905 ft 290 kts 147°
2026-04-26 16:14 46.67661 23.66604 6505 ft 300 kts 150°
2026-04-26 16:15 46.65840 23.68144 7276 ft 306 kts 152°
2026-04-26 16:15 46.63965 23.69663 8043 ft 312 kts 152°
2026-04-26 16:15 46.62042 23.71183 8793 ft 317 kts 153°
2026-04-26 16:16 46.58093 23.74249 10278 ft 328 kts 154°
2026-04-26 16:16 46.56002 23.75854 10497 ft 352 kts 154°
2026-04-26 16:16 46.53763 23.77573 10644 ft 375 kts 154°
2026-04-26 16:16 46.51411 23.79385 11028 ft 388 kts 154°
2026-04-26 16:17 46.49003 23.81247 11628 ft 395 kts 153°
2026-04-26 16:17 46.46556 23.83141 12252 ft 400 kts 153°
2026-04-26 16:17 46.44078 23.85057 12864 ft 406 kts 153°
2026-04-26 16:17 46.41571 23.86993 13500 ft 411 kts 153°
2026-04-26 16:18 46.39023 23.88960 14106 ft 416 kts 153°
2026-04-26 16:18 46.33858 23.92933 15207 ft 427 kts 153°
2026-04-26 16:19 46.28537 23.97017 16264 ft 437 kts 154°
2026-04-26 16:19 46.25841 23.99077 16803 ft 440 kts 154°
2026-04-26 16:19 46.21302 24.02532 17703 ft 447 kts 154°
2026-04-26 16:20 46.17599 24.05353 18389 ft 452 kts 154°
2026-04-26 16:20 46.12034 24.09600 19265 ft 459 kts 154°
2026-04-26 16:20 46.09204 24.11762 19728 ft 461 kts 154°
2026-04-26 16:21 46.06359 24.13929 20169 ft 464 kts 154°
2026-04-26 16:21 46.03494 24.16105 20585 ft 467 kts 154°
2026-04-26 16:21 46.00613 24.18287 21041 ft 469 kts 154°
2026-04-26 16:21 45.97722 24.20475 21493 ft 471 kts 154°
2026-04-26 16:22 45.94808 24.22676 21928 ft 474 kts 154°
2026-04-26 16:22 45.91874 24.24888 22355 ft 476 kts 154°
2026-04-26 16:22 45.88931 24.27101 22783 ft 479 kts 154°
2026-04-26 16:22 45.85972 24.29325 23198 ft 481 kts 154°
2026-04-26 16:23 45.82999 24.31559 23622 ft 484 kts 154°
2026-04-26 16:23 45.79996 24.33816 23932 ft 487 kts 154°
2026-04-26 16:23 45.76993 24.36074 24246 ft 489 kts 154°
2026-04-26 16:23 45.73983 24.38335 24708 ft 488 kts 154°
2026-04-26 16:24 45.70971 24.40590 25092 ft 488 kts 154°
2026-04-26 16:24 45.67949 24.42852 25464 ft 490 kts 154°
2026-04-26 16:24 45.64927 24.45111 25821 ft 491 kts 154°
2026-04-26 16:24 45.61896 24.47372 26157 ft 492 kts 155°
2026-04-26 16:25 45.58909 24.49597 26515 ft 494 kts 155°
2026-04-26 16:25 45.55804 24.51903 26833 ft 495 kts 155°
2026-04-26 16:25 45.52746 24.54173 27123 ft 497 kts 155°
2026-04-26 16:25 45.49720 24.56422 27457 ft 495 kts 154°
2026-04-26 16:26 45.46664 24.58688 27848 ft 494 kts 155°
2026-04-26 16:26 45.44594 24.60219 28059 ft 495 kts 155°
2026-04-26 16:26 45.40538 24.63213 28412 ft 497 kts 155°
2026-04-26 16:26 45.37457 24.65487 28684 ft 499 kts 154°
2026-04-26 16:27 45.34369 24.67768 29009 ft 500 kts 154°
2026-04-26 16:27 45.31281 24.70050 29411 ft 499 kts 155°
2026-04-26 16:27 45.28196 24.72324 29745 ft 500 kts 155°
2026-04-26 16:27 45.25107 24.74593 30055 ft 500 kts 155°
2026-04-26 16:28 45.22031 24.76845 30482 ft 496 kts 155°
2026-04-26 16:28 45.18971 24.79084 30827 ft 494 kts 155°
2026-04-26 16:28 45.15915 24.81323 31180 ft 493 kts 155°
2026-04-26 16:28 45.12871 24.83550 31506 ft 492 kts 155°
2026-04-26 16:29 45.09828 24.85771 31819 ft 491 kts 155°
2026-04-26 16:29 45.06793 24.87986 32151 ft 491 kts 155°
2026-04-26 16:29 45.03760 24.90203 32497 ft 489 kts 154°
2026-04-26 16:29 45.00741 24.92408 32857 ft 488 kts 155°
2026-04-26 16:30 44.97766 24.94573 33160 ft 487 kts 154°
2026-04-26 16:30 44.94758 24.96759 33471 ft 486 kts 154°
2026-04-26 16:30 44.91754 24.98937 33793 ft 485 kts 154°
2026-04-26 16:30 44.88746 25.01111 34070 ft 485 kts 154°
2026-04-26 16:31 44.85742 25.03278 34361 ft 484 kts 154°
2026-04-26 16:31 44.82750 25.05437 34645 ft 483 kts 154°
2026-04-26 16:31 44.79761 25.07593 34918 ft 482 kts 155°
2026-04-26 16:31 44.76775 25.09742 35109 ft 483 kts 155°
2026-04-26 16:32 44.73777 25.11899 35325 ft 482 kts 154°
2026-04-26 16:32 44.71798 25.13323 35542 ft 481 kts 154°
2026-04-26 16:32 44.67820 25.16185 35872 ft 479 kts 155°
2026-04-26 16:32 44.64858 25.18309 36114 ft 478 kts 155°
2026-04-26 16:33 44.61896 25.20429 36349 ft 477 kts 155°
2026-04-26 16:33 44.58939 25.22546 36560 ft 476 kts 155°
2026-04-26 16:33 44.55987 25.24661 36778 ft 476 kts 155°
2026-04-26 16:33 44.53033 25.26774 36910 ft 477 kts 155°
2026-04-26 16:34 44.47121 25.30991 36913 ft 476 kts 155°
2026-04-26 16:34 44.41228 25.35186 36912 ft 475 kts 155°
2026-04-26 16:35 44.35369 25.39345 36912 ft 475 kts 155°
2026-04-26 16:35 44.29472 25.43517 36902 ft 475 kts 155°
2026-04-26 16:36 44.23574 25.47687 36891 ft 475 kts 155°
2026-04-26 16:36 44.17675 25.51848 36898 ft 474 kts 155°
2026-04-26 16:37 44.11845 25.56038 36900 ft 475 kts 148°
2026-04-26 16:37 44.09283 25.58926 36908 ft 475 kts 133°
2026-04-26 16:37 44.07817 25.61259 36905 ft 475 kts 130°
2026-04-26 16:38 44.02882 25.69477 36895 ft 476 kts 129°
2026-04-26 16:38 43.98656 25.76562 36893 ft 477 kts 129°
2026-04-26 16:39 43.94410 25.83617 36890 ft 476 kts 129°
2026-04-26 16:39 43.90146 25.90657 36905 ft 476 kts 130°
2026-04-26 16:40 43.85878 25.97694 36910 ft 476 kts 130°
2026-04-26 16:40 43.81615 26.04713 36911 ft 476 kts 130°
2026-04-26 16:41 43.77353 26.11716 36910 ft 475 kts 130°
2026-04-26 16:41 43.73084 26.18699 36910 ft 475 kts 130°
2026-04-26 16:42 43.68814 26.25677 36912 ft 475 kts 130°
2026-04-26 16:42 43.64541 26.32645 36910 ft 475 kts 130°
2026-04-26 16:43 43.60267 26.39604 36905 ft 475 kts 129°
2026-04-26 16:43 43.55988 26.46545 36908 ft 475 kts 130°
2026-04-26 16:44 43.51697 26.53484 36903 ft 475 kts 130°
2026-04-26 16:44 43.47435 26.60369 36903 ft 475 kts 130°
2026-04-26 16:45 43.43138 26.67289 36907 ft 475 kts 130°
2026-04-26 16:45 43.38838 26.74198 36914 ft 475 kts 130°
2026-04-26 16:46 43.35263 26.79926 36913 ft 475 kts 130°
2026-04-26 16:46 43.30963 26.86802 36914 ft 475 kts 130°
2026-04-26 16:47 43.26663 26.93671 36926 ft 474 kts 130°
2026-04-26 16:47 43.22367 27.00511 36933 ft 472 kts 130°
2026-04-26 16:48 43.18073 27.07319 36928 ft 472 kts 130°
2026-04-26 16:48 43.13781 27.14122 36940 ft 471 kts 130°
2026-04-26 16:49 43.09496 27.20903 36931 ft 471 kts 130°
2026-04-26 16:49 43.05208 27.27669 36919 ft 470 kts 130°
2026-04-26 16:50 43.00921 27.34417 36911 ft 470 kts 130°
2026-04-26 16:50 42.96657 27.41102 36917 ft 470 kts 130°
2026-04-26 16:51 42.92358 27.47834 36913 ft 470 kts 130°
2026-04-26 16:51 42.88060 27.54562 36918 ft 470 kts 130°
2026-04-26 16:52 42.84454 27.60190 36924 ft 470 kts 130°
2026-04-26 16:52 42.79447 27.67966 36926 ft 470 kts 130°
2026-04-26 16:53 42.75125 27.74676 36928 ft 470 kts 130°
2026-04-26 16:53 42.70810 27.81360 36926 ft 470 kts 130°
2026-04-26 16:54 42.66491 27.88033 36935 ft 470 kts 130°
2026-04-26 16:54 42.62167 27.94706 36933 ft 470 kts 131°
2026-04-26 16:55 42.57837 28.01372 36922 ft 471 kts 131°
2026-04-26 16:55 42.53493 28.08032 36922 ft 471 kts 131°
2026-04-26 16:56 42.46994 28.17967 36929 ft 472 kts 131°
2026-04-26 16:57 42.42641 28.24609 36930 ft 472 kts 131°
2026-04-26 16:57 42.36097 28.34569 36935 ft 472 kts 132°
2026-04-26 16:58 42.32437 28.40127 36932 ft 472 kts 132°
2026-04-26 16:59 42.25159 28.51140 36926 ft 473 kts 132°
2026-04-26 17:00 42.16367 28.64383 36931 ft 474 kts 132°
2026-04-26 17:00 42.11820 28.70815 36500 ft 476 kts 141°
2026-04-26 17:00 42.09156 28.73356 35756 ft 476 kts 152°
2026-04-26 17:01 42.06175 28.75251 34983 ft 475 kts 162°
2026-04-26 17:01 42.02988 28.76454 34094 ft 476 kts 172°
2026-04-26 17:01 41.99703 28.76943 33076 ft 476 kts 182°
2026-04-26 17:01 41.96387 28.77059 32175 ft 477 kts 181°
2026-04-26 17:02 41.93056 28.77184 31204 ft 481 kts 181°
2026-04-26 17:02 41.89720 28.77315 30235 ft 482 kts 181°
2026-04-26 17:02 41.86348 28.77453 29247 ft 482 kts 181°
2026-04-26 17:02 41.83012 28.77674 27893 ft 480 kts 179°
2026-04-26 17:03 41.79693 28.77995 27240 ft 474 kts 178°
2026-04-26 17:03 41.76429 28.78362 26502 ft 469 kts 178°
2026-04-26 17:03 41.73212 28.78839 26081 ft 460 kts 172°
2026-04-26 17:03 41.70174 28.80015 25664 ft 453 kts 159°
2026-04-26 17:04 41.67451 28.82152 24861 ft 457 kts 142°
2026-04-26 17:04 41.65258 28.85218 24178 ft 457 kts 126°
2026-04-26 17:04 41.63753 28.88930 23545 ft 454 kts 111°
2026-04-26 17:04 41.62659 28.92867 22801 ft 449 kts 110°
2026-04-26 17:05 41.61595 28.96744 21707 ft 442 kts 110°
2026-04-26 17:05 41.60545 29.00579 20668 ft 439 kts 110°
2026-04-26 17:05 41.59497 29.04399 20212 ft 436 kts 110°
2026-04-26 17:05 41.58450 29.08203 20004 ft 435 kts 110°
2026-04-26 17:06 41.57408 29.11986 19933 ft 434 kts 110°
2026-04-26 17:06 41.56363 29.15775 19957 ft 435 kts 110°
2026-04-26 17:06 41.55313 29.19569 19956 ft 435 kts 110°
2026-04-26 17:06 41.54262 29.23359 19956 ft 435 kts 110°
2026-04-26 17:07 41.53208 29.27149 19959 ft 435 kts 110°
2026-04-26 17:07 41.52154 29.30925 19959 ft 435 kts 110°
2026-04-26 17:07 41.51097 29.34705 19956 ft 434 kts 110°
2026-04-26 17:07 41.50043 29.38478 19958 ft 434 kts 110°
2026-04-26 17:08 41.48986 29.42254 19961 ft 434 kts 110°
2026-04-26 17:08 41.47931 29.46021 19961 ft 434 kts 110°
2026-04-26 17:08 41.46874 29.49796 19961 ft 434 kts 110°
2026-04-26 17:08 41.45818 29.53561 19966 ft 434 kts 110°
2026-04-26 17:09 41.44759 29.57322 19962 ft 430 kts 110°
2026-04-26 17:09 41.44072 29.59754 19959 ft 417 kts 110°
2026-04-26 17:09 41.42757 29.64414 19961 ft 394 kts 110°
2026-04-26 17:09 41.41812 29.67756 19962 ft 377 kts 110°
2026-04-26 17:10 41.40900 29.70971 19881 ft 365 kts 110°
2026-04-26 17:10 41.40016 29.74080 19705 ft 355 kts 110°
2026-04-26 17:10 41.39150 29.77123 19217 ft 347 kts 110°
2026-04-26 17:10 41.38303 29.80094 18743 ft 340 kts 110°
2026-04-26 17:11 41.37471 29.83011 18274 ft 333 kts 112°
2026-04-26 17:11 41.36515 29.85791 17755 ft 328 kts 115°
2026-04-26 17:11 41.35531 29.88497 17206 ft 323 kts 116°
2026-04-26 17:11 41.34539 29.91185 16562 ft 323 kts 116°
2026-04-26 17:12 41.32365 29.96396 15305 ft 322 kts 130°
2026-04-26 17:12 41.30842 29.98577 14699 ft 321 kts 133°
2026-04-26 17:13 41.27787 30.02890 13487 ft 320 kts 133°
2026-04-26 17:13 41.26260 30.05022 12838 ft 318 kts 137°
2026-04-26 17:13 41.22585 30.08174 11560 ft 313 kts 150°
2026-04-26 17:14 41.20704 30.09598 11110 ft 305 kts 150°
2026-04-26 17:14 41.17143 30.12255 11003 ft 287 kts 157°
2026-04-26 17:14 41.15251 30.13057 11009 ft 285 kts 169°
2026-04-26 17:15 41.11388 30.14215 11014 ft 285 kts 169°
2026-04-26 17:15 41.09450 30.14794 11015 ft 285 kts 169°
2026-04-26 17:15 41.07516 30.15366 11014 ft 284 kts 172°
2026-04-26 17:16 41.05558 30.15524 11011 ft 282 kts 186°
2026-04-26 17:16 41.03602 30.15328 11012 ft 282 kts 186°
2026-04-26 17:16 41.01649 30.15132 11015 ft 281 kts 188°
2026-04-26 17:16 40.99770 30.14515 11013 ft 276 kts 208°
2026-04-26 17:17 40.98216 30.13078 10788 ft 270 kts 231°
2026-04-26 17:17 40.97012 30.11051 10558 ft 301 kts 234°
2026-04-26 17:17 40.95918 30.08583 10305 ft 310 kts 254°
2026-04-26 17:17 40.95672 30.05835 10067 ft 298 kts 278°
2026-04-26 17:18 40.96313 30.03297 9824 ft 288 kts 302°
2026-04-26 17:18 40.97320 30.01053 9654 ft 280 kts 295°
2026-04-26 17:18 40.97973 29.98678 9515 ft 270 kts 287°
2026-04-26 17:18 40.98424 29.96310 9383 ft 260 kts 284°
2026-04-26 17:19 40.99218 29.91748 9128 ft 253 kts 285°
2026-04-26 17:19 40.99650 29.89491 8998 ft 253 kts 285°
2026-04-26 17:19 41.00106 29.87243 8858 ft 253 kts 287°
2026-04-26 17:20 41.00581 29.84994 8734 ft 253 kts 287°
2026-04-26 17:20 41.00744 29.84236 8694 ft 253 kts 288°
2026-04-26 17:20 41.01542 29.80591 8362 ft 242 kts 288°
2026-04-26 17:20 41.02008 29.78467 7886 ft 240 kts 288°
2026-04-26 17:21 41.02431 29.76320 7389 ft 252 kts 280°
2026-04-26 17:21 41.02643 29.73937 6898 ft 264 kts 277°
2026-04-26 17:21 41.02810 29.71501 6413 ft 267 kts 276°
2026-04-26 17:21 41.02979 29.69027 5902 ft 270 kts 275°
2026-04-26 17:22 41.02818 29.66553 5401 ft 274 kts 254°
2026-04-26 17:22 41.02052 29.64225 4885 ft 278 kts 246°
2026-04-26 17:22 41.01202 29.61924 4491 ft 275 kts 246°
2026-04-26 17:22 41.00388 29.59704 4370 ft 262 kts 246°
2026-04-26 17:23 40.99617 29.57587 4231 ft 250 kts 246°
2026-04-26 17:23 40.98877 29.55557 4106 ft 239 kts 247°
2026-04-26 17:23 40.98174 29.53629 3980 ft 228 kts 246°
2026-04-26 17:23 40.97497 29.51775 3854 ft 220 kts 247°
2026-04-26 17:24 40.96834 29.49959 3579 ft 219 kts 247°
2026-04-26 17:24 40.96171 29.48143 3258 ft 220 kts 246°
2026-04-26 17:24 40.95500 29.46308 2915 ft 222 kts 246°
2026-04-26 17:24 40.94839 29.44507 2583 ft 213 kts 246°
2026-04-26 17:25 40.94215 29.42802 2267 ft 205 kts 246°
2026-04-26 17:25 40.93595 29.41111 1948 ft 198 kts 246°
2026-04-26 17:25 40.93017 29.39534 1678 ft 187 kts 246°
2026-04-26 17:25 40.92468 29.38022 1368 ft 176 kts 246°
2026-04-26 17:26 40.91967 29.36644 1162 ft 157 kts 245°
2026-04-26 17:26 40.91502 29.35380 863 ft 149 kts 244°
2026-04-26 17:26 40.91065 29.34171 627 ft 143 kts 243°
2026-04-26 17:26 40.90634 29.33016 447 ft 141 kts 242°
2026-04-26 17:27 40.90208 29.31893 316 ft 130 kts 244°
2026-04-26 17:27 40.89893 29.31019 311 ft 80 kts 244°
2026-04-26 17:27 40.89722 29.30568 312 ft 37 kts 243°
2026-04-26 17:27 40.89649 29.30354 309 ft 23 kts 252°
2026-04-26 17:28 40.89624 29.30168 309 ft 17 kts 272°
2026-04-26 17:28 40.89634 29.30031 309 ft 11 kts 273°
2026-04-26 17:28 40.89646 29.29936 309 ft 10 kts 298°
2026-04-26 17:28 40.89696 29.29934 307 ft 7 kts 38°
2026-04-26 17:29 40.89714 29.29969 307 ft 0 kts 63°
2026-04-26 17:29 40.89740 29.30037 309 ft 10 kts 65°
2026-04-26 17:29 40.89768 29.30114 309 ft 8 kts 64°
2026-04-26 17:30 40.89795 29.30189 312 ft 12 kts 64°
2026-04-26 17:30 40.89829 29.30278 311 ft 10 kts 64°
2026-04-26 17:30 40.89859 29.30361 310 ft 10 kts 64°
2026-04-26 17:30 40.89894 29.30455 310 ft 13 kts 64°
2026-04-26 17:31 40.89931 29.30557 311 ft 11 kts 64°
2026-04-26 17:31 40.89964 29.30645 311 ft 11 kts 64°
2026-04-26 17:31 40.90000 29.30745 311 ft 13 kts 64°
2026-04-26 17:31 40.90039 29.30849 311 ft 12 kts 64°
2026-04-26 17:32 40.90084 29.30924 311 ft 10 kts 24°
2026-04-26 17:32 40.90145 29.30916 311 ft 8 kts 336°
2026-04-26 17:32 40.90193 29.30885 311 ft 8 kts 334°
2026-04-26 17:32 40.90243 29.30887 311 ft 7 kts 36°
2026-04-26 17:33 40.90272 29.30957 311 ft 10 kts 63°
2026-04-26 17:33 40.90303 29.31040 311 ft 11 kts 64°
2026-04-26 17:33 40.90335 29.31125 311 ft 10 kts 64°
2026-04-26 17:34 40.90406 29.31320 311 ft 11 kts 64°
2026-04-26 17:34 40.90437 29.31393 311 ft 6 kts 37°
2026-04-26 17:34 40.90469 29.31380 311 ft 4 kts 335°
2026-04-26 17:34 40.90492 29.31366 311 ft 3 kts 335°
2026-04-26 17:35 40.90508 29.31356 311 ft 0 kts 334°